CAPE
0 0 0 0 0 0 0 240 1168 1480 1751 1872 1587 1417 1570 1405 1294 1281 1642 1931 1740 1783 1801 1671 1487 1138 1255 1089 952 923 791 866
0 0 0 0 0 0 0 0 1011 1331 1581 1693 1654 1582 1735 1421 1391 1497 1630 2055 1446 1526 1798 1427 1462 1357 1268 1324 1383 1136 996 1018
0 0 0 0 0 0 0 0 0 1148 1358 1460 1503 1436 1658 1633 1738 1817 1804 1876 1480 1074 1256 1646 1671 1584 1424 1348 1353 1218 1023 930
0 0 0 0 3 50 20 0 0 475 910 1178 1422 1380 1464 1717 1826 1834 1672 1539 1056 893 1007 1126 1266 1258 1369 1433 1413 1106 749 411
0 0 0 3 99 310 194 0 0 84 870 953 793 757 918 1098 1289 1282 1032 903 866 798 771 948 1166 1221 1160 1393 1460 1250 625 360
0 0 0 59 178 269 40 0 0 394 765 936 538 552 613 591 443 498 646 686 686 685 707 899 1038 1133 1059 1236 1479 970 682 205
0 2 119 91 226 17 160 175 350 415 891 495 458 855 1030 644 243 279 191 191 151 161 220 366 500 494 477 619 806 810 674 333
0 14 88 120 134 7 41 19 148 379 282 134 260 845 704 294 121 43 12 2 2 1 0 3 17 9 2 1 6 25 82 70
0 1 54 350 150 1 1 25 38 97 180 556 611 476 503 197 72 4 3 2 15 2 3 3 2 3 3 1 3 3 2 2
0 0 9 378 99 1 4 3 1 1 42 133 202 172 58 18 3 2 3 1 2 2 3 3 2 2 1 1 1 2 3 4
0 0 0 212 19 0 3 3 1 1 1 4 9 7 1 1 1 2 2 2 1 2 1 1 1 1 2 2 1 1 1 2
0 0 0 13 2 4 3 3 4 2 1 0 1 2 2 3 2 1 2 2 1 2 1 0 0 2 2 1 1 2 2 2
0 0 0 0 3 4 3 3 3 2 0 0 2 3 3 2 2 1 1 0 0 0 0 0 0 0 0 0 1 2 2 2
0 0 0 0 1 8 3 2 1 1 0 0 0 0 0 0 0 0 0 0 0 0 0 0 0 0 0 0 0 1 2 2
0 0 0 0 0 3 4 1 0 0 0 0 0 0 0 0 0 0 0 0 0 0 0 0 0 0 0 0 0 1 2 2
0 0 0 0 2 5 2 3 1 0 1 1 2 2 1 0 0 0 0 0 0 0 0 0 0 0 0 0 1 0 2 2
0 0 0 0 0 5 0 1 0 2 2 2 1 0 0 0 0 0 0 0 0 0 0 0 0 0 0 0 0 2 2 1
0 0 0 0 0 0 1 1 3 1 0 0 0 0 0 0 0 0 0 0 0 0 0 0 0 0 0 0 0 0 0 0
0 0 0 2 4 6 4 0 0 0 0 0 0 0 0 0 0 0 0 0 0 0 0 0 0 0 0 0 0 0 0 0
CIN
0 0 0 0 0 0 0 -129 -111 -126 -101 -73 -97 -89 -68 -70 -66 -49 -15 -20 -9 -3 -1 -1 -2 -3 -1 -21 -8 -4 -5 -2
0 0 0 0 0 0 0 0 -74 -115 -97 -85 -75 -82 -63 -79 -62 -36 -11 -21 -54 -25 -1 -2 -2 -4 -3 -4 -0 -2 -3 -1
0 0 0 0 0 0 0 0 0 -67 -66 -67 -50 -62 -43 -46 -26 -19 -14 -39 -63 -88 -34 -1 -1 -1 -1 -3 -2 -1 -3 -6
0 0 0 0 -68 -326 -368 0 0 -193 -61 -45 -23 -43 -62 -56 -41 -42 -49 -54 -112 -107 -69 -39 -26 -16 -6 -1 -0 -6 -21 -72
0 0 0 -51 -267 -353 -381 -67 0 -263 -61 -24 -127 -163 -173 -156 -132 -126 -130 -119 -115 -124 -104 -63 -30 -26 -23 -8 -0 -2 -23 -100
0 0 -17 -236 -347 -427 -468 0 0 -216 -98 -71 -141 -155 -165 -186 -213 -206 -152 -129 -119 -109 -89 -46 -37 -27 -29 -7 0 -13 -23 -104
0 -76 -278 -299 -383 -577 -382 -301 -214 -181 -99 -165 -140 -83 -69 -183 -272 -230 -272 -275 -315 -292 -214 -128 -95 -84 -87 -53 -29 -21 -20 -46
0 -334 -319 -286 -394 -434 -419 -454 -252 -147 -202 -292 -191 -98 -130 -213 -270 -371 -480 0 0 -197 0 -170 -328 -325 0 0 -92 -250 -173 -170
0 -260 -353 -257 -346 0 0 -360 -332 -247 -167 -105 -107 -128 -127 -213 -255 -59 0 -167 -313 -0 0 0 0 0 0 0 -0 0 0 0
0 0 -395 -266 -360 -121 0 0 0 0 -289 -153 -144 -163 -219 -216 0 0 0 0 0 0 0 0 0 0 0 0 -0 0 -0 -0
0 0 0 -245 -212 0 0 0 0 0 0 -151 -260 -312 0 0 0 0 0 0 0 0 0 -0 0 0 0 0 0 0 -0 0
0 0 0 -115 -0 0 0 0 0 0 0 0 0 0 0 -0 0 0 -0 -0 -0 -0 -0 -0 -0 -0 -0 -0 -0 0 0 0
0 0 0 0 -1 0 0 0 0 0 0 -0 -0 -0 -0 -1 -1 -1 -0 0 0 0 0 0 0 0 0 -0 0 -0 0 0
0 0 0 0 -0 -0 0 0 -0 -1 -0 -0 0 0 0 0 0 0 0 0 0 0 0 0 0 0 0 0 0 0 0 0
0 0 0 0 0 -1 -1 -1 -1 0 0 0 0 0 -0 -1 -1 0 0 0 0 0 0 0 0 0 0 0 -0 0 0 0
0 0 0 -0 -1 -1 -1 -1 -1 -0 -0 -1 -0 -0 -1 -0 0 0 0 0 0 0 0 0 0 0 0 0 -0 0 0 0
0 0 0 0 -0 -0 0 -0 -2 -0 -0 -0 -1 0 0 0 0 0 0 0 0 0 0 0 0 0 0 0 0 0 0 0
0 0 0 -0 0 -0 -0 -0 -1 -0 0 0 0 0 0 0 0 0 0 0 0 0 0 0 0 0 0 0 0 0 0 0
0 0 0 0 0 -0 -0 -0 0 0 0 0 0 0 0 0 0 0 0 0 0 0 0 0 0 0 0 0 0 0 0 0
Wind_Speed
5 7 6 7 7 8 6 6 8 9 9 10 9 10 9 8 9 13 11 12 16 15 17 9 6 7 6 5 5 4 4 6
8 8 7 11 12 14 9 8 9 10 12 13 13 13 10 10 8 10 9 8 9 10 16 9 8 7 6 5 5 6 7 8
8 6 6 7 11 13 12 10 10 11 12 13 13 12 10 9 7 7 7 8 7 8 10 8 7 8 7 8 7 7 9 11
7 5 5 6 10 14 14 11 9 10 11 11 11 12 11 12 10 10 10 10 10 9 8 8 9 9 10 10 9 9 10 12
7 7 6 9 11 16 16 12 8 9 10 11 13 16 14 13 14 13 12 11 10 9 11 11 11 11 12 15 10 9 13 12
6 7 10 12 16 16 16 13 5 4 7 8 11 12 12 12 16 14 13 13 14 12 13 12 11 11 12 13 13 12 12 15
9 10 11 14 17 18 16 10 6 3 4 7 10 10 10 11 12 12 12 13 12 12 13 13 14 14 15 15 16 16 17 17
11 11 13 15 16 15 12 8 7 4 3 6 9 10 10 10 10 11 11 11 11 11 11 12 13 14 15 16 18 19 19 18
14 14 13 15 15 12 11 8 6 3 2 5 6 7 9 8 8 9 10 10 10 9 10 11 13 14 16 17 17 18 18 18
16 14 14 15 15 12 10 7 6 6 5 6 7 7 8 8 7 7 8 8 9 8 10 11 13 14 16 17 19 19 20 21
16 14 14 15 14 12 9 7 6 5 6 7 8 7 7 6 6 6 7 7 8 10 10 12 13 16 17 18 20 22 23 24
16 15 13 14 13 11 9 7 6 6 6 7 7 7 6 5 5 6 7 7 9 9 12 14 15 17 18 20 22 24 26 27
16 16 15 14 11 10 9 6 7 7 7 7 7 6 6 6 7 7 7 9 10 12 14 16 17 19 21 23 26 27 27 28
19 17 15 14 12 10 9 5 6 6 7 6 6 6 6 7 8 9 10 12 13 15 17 19 22 23 24 25 26 28 29 30
22 18 17 15 13 10 8 6 5 6 7 8 8 8 9 9 11 12 14 16 18 19 20 22 24 26 29 31 31 32 34 33
21 20 17 15 13 10 7 6 7 7 8 9 10 10 10 11 13 15 15 17 21 25 28 28 28 31 31 32 33 34 33 33
25 21 17 16 15 12 10 9 9 9 10 11 11 12 13 15 16 18 21 23 24 25 26 27 32 33 32 33 33 34 32 34
28 24 22 20 17 14 13 11 10 11 11 12 12 13 14 15 16 19 22 24 26 29 31 32 31 29 28 30 32 34 35 35
31 25 22 19 17 16 13 11 12 13 13 13 13 14 15 16 20 23 26 27 30 31 30 29 30 31 31 34 36 37 36 34
Wind_Direction
240 226 247 279 303 307 279 235 227 230 228 218 212 205 202 194 189 184 185 185 188 192 192 205 227 206 208 212 215 228 269 308
245 245 255 300 301 308 297 272 244 234 230 222 215 213 213 204 203 190 193 201 196 201 190 213 245 244 254 254 262 260 289 301
282 261 272 280 300 306 301 280 256 235 236 231 226 225 226 223 227 212 219 237 231 213 208 226 252 265 252 279 275 290 297 303
287 279 284 293 306 310 307 291 264 237 230 234 237 247 252 252 244 252 252 259 260 248 244 245 259 262 283 288 287 287 300 303
304 313 313 318 323 323 319 309 276 230 224 224 234 224 229 238 254 257 262 259 259 256 265 268 275 281 283 295 296 293 304 299
313 321 331 335 336 335 328 320 296 242 225 236 225 224 228 250 260 256 257 264 265 267 268 272 278 289 293 295 301 299 296 306
324 335 337 336 336 332 331 331 317 262 227 222 216 219 231 251 252 252 258 261 265 266 273 281 290 295 298 300 302 302 302 301
318 324 332 334 335 335 333 333 315 301 252 235 230 254 255 256 252 255 257 258 265 266 273 281 289 297 303 305 304 305 304 302
314 319 328 334 338 336 331 336 325 297 232 244 247 251 263 262 263 266 268 265 267 272 281 291 300 305 310 311 311 310 310 307
310 318 324 334 334 332 326 326 319 309 303 286 273 271 271 272 275 274 276 281 287 288 292 297 304 309 312 313 312 312 311 310
308 314 324 332 333 331 326 317 303 295 292 284 282 280 279 283 285 284 288 292 297 299 302 307 311 314 316 317 318 317 314 313
305 312 322 327 333 327 322 305 288 281 280 279 276 278 279 284 290 296 301 305 307 309 312 315 317 319 321 320 318 317 314 313
307 311 316 318 325 319 308 297 280 272 267 265 270 274 282 290 296 304 310 312 314 316 319 320 321 320 320 318 316 316 316 314
310 309 308 311 311 309 296 276 256 250 252 254 258 268 281 291 300 306 309 310 312 315 317 318 319 320 320 319 318 316 315 313
309 305 302 305 305 305 283 259 234 227 247 255 261 274 285 295 302 306 309 310 310 313 317 317 315 316 315 315 314 314 314 313
301 302 296 295 294 291 274 256 234 234 248 259 268 279 289 296 299 305 310 314 313 310 309 311 312 314 314 314 313 313 313 313
292 295 292 288 286 280 273 255 243 246 256 264 273 282 290 296 301 304 306 308 309 312 313 315 314 312 313 312 313 314 314 313
288 287 287 283 276 264 257 248 243 250 259 268 276 285 293 299 305 308 311 311 310 309 310 312 314 316 316 316 314 312 312 313
286 282 285 280 270 261 252 248 252 256 261 268 276 285 295 300 303 305 308 308 309 311 313 314 314 315 314 313 312 310 312 313